Hourly Weather Roundup

ASUS45 KTFX 170010

RWRMT 

Montana Regional Weather Roundup

National Weather Service Great Falls MT

600 PM MDT SUN JUN 16 2024



NOTE: "FAIR" indicates few or no clouds below 12,000 feet with no

significant weather and/or obstructions to visibility.



MTZ001.007-043-170100-

West of the divide

  

CITY           SKY/WX    TMP DP  RH WIND       PRES   REMARKS

Kalispell      PTSUNNY   55  36  48 MISG      29.89S                  

Missoula       CLOUDY    60  24  25 NE8       29.85F                  

Butte          CLOUDY    57  15  19 NW13      29.83F                  

Anaconda         N/A     54  21  28 N5G16     29.85                   

Deer Lodge       N/A     55  32  41 NW18      29.89                   

Hamilton       CLOUDY    55  27  33 N8        29.86F                  

Mullan Pass    PTSUNNY   42  27  55 CALM      29.91F                  

Plains         CLOUDY    63  28  27 NE7       29.86F                  

--------------------------------



MTZ008-052.055-170100-

Southwest Montana

  

CITY           SKY/WX    TMP DP  RH WIND       PRES   REMARKS

Bozeman        PTSUNNY   67  22  18 N9        29.78F                  

Dillon         CLOUDY    61  21  21 N8        29.75F                  

Ennis          MOSUNNY   63  25  23 S20G29    29.81F                  

Three Forks      N/A     64  25  22 N15G21    29.80F                  

Twin Bridges   CLOUDY    64   5   9 N6        29.77F                  

W Yellowstone  PTSUNNY   57  19  23 SW13G20   29.87F                  

--------------------------------



MTZ009-010-012-014-046-048-049-054-170100-

East Slopes and Central Montana

  

CITY           SKY/WX    TMP DP  RH WIND       PRES   REMARKS

Cut Bank       MOSUNNY   55  32  41 NW20G28   29.87F                  

Great Falls    CLOUDY    61  21  21 SW9       29.84S                  

Helena         CLOUDY    63  19  18 NW10      29.82S                  

Malmstrom AFB  CLOUDY    64  20  19 W12       29.82S                  

Augusta        PTSUNNY   58  16  19 W8        29.83F                  

Bowmans Corner CLOUDY    57  16  20 W9        29.81S                  

Choteau          N/A     57  23  26 NE10      29.84                   

Fairfield      CLOUDY    60  13  16 SW3       29.81S                  

Power          PTSUNNY   59  22  24 NW13      29.82R                  

Raynesford     CLOUDY    59  20  22 W13       29.83S                  

Ulm            CLOUDY    60  18  19 W14       29.80S                  

--------------------------------



MTZ011-013-016-021-045-047-050-051-170100-

North Central Montana

  

CITY           SKY/WX    TMP DP  RH WIND       PRES   REMARKS

Havre          MOSUNNY   61  40  45 NW22G30   29.83R                  

Lewistown      PTSUNNY   58  22  24 NW9G22    29.85R                  

Chinook          N/A     61  39  44 W16       29.83                   

Denton         PTSUNNY   63  22  21 W21       29.81S                  

Fort Benton    PTCLDY    64  32  29 N13       29.81S                  

Geyser         PTSUNNY   61  19  19 W18       29.83S                  

Grass Range    PTSUNNY   62  20  20 NW13G21   29.78S                  

Judith Gap     CLOUDY    56  27  33 N18       29.82S                  

N Bar Ranch    CLOUDY    57  23  26 NW13      29.85S                  

Roy            PTSUNNY   64  22  20 NW18G24   29.78S                  

Stanford       PTSUNNY   58  22  25 NW20      29.83R                  

Winifred       MOSUNNY   62  24  23 W10G20    29.80S                  

--------------------------------



MTZ017.020-022.027-061-062-170100-

Northeast Montana

  

CITY           SKY/WX    TMP DP  RH WIND       PRES   REMARKS

Glasgow        MOSUNNY   67  38  34 W24G36    29.75S                  

Circle           N/A     64  36  34 W20G26    29.78                   

Culbertson     SUNNY     64  37  36 W21G32    29.72R                  

Glendive       MOSUNNY   67  33  28 NW18G30   29.81R                  

Jordan           N/A     68  29  23 W18G28    29.80SMalta          PTSUNNY   61  41  48 NW18G31   29.78R                  

Plentywood     PTSUNNY   63  43  48 W30G39    29.71R                  

Poplar         PTSUNNY   66  39  37 W29G35    29.74F                  

Wolf Point     PTSUNNY   68  35  29 W21G37    29.75S                  

--------------------------------



MTZ028.42-056.058-170100-

Southcentral and southeast Montana

  

CITY           SKY/WX    TMP DP  RH WIND       PRES   REMARKS

Baker          SUNNY     69  23  17 NW15G28   29.82S                  

Big Timber     CLEAR     66  19  16 W5        29.80S                  

Billings       PTSUNNY   68  19  15 E9        29.81S                  

Hardin         CLEAR     72  18  13 NW9       29.78F                  

Harlowton      CLOUDY    60  23  24 N20       29.77F                  

Laurel           N/A     68  19  15 N12G18    29.80                   

Livingston     PTSUNNY   66  24  20 N9        29.78F                  

Miles City     SUNNY     70  25  18 NW12      29.80R                  

--------------------------------



Regional Reports...Dakotas/MN

  

CITY           SKY/WX    TMP DP  RH WIND       PRES   REMARKS

Williston      MOSUNNY   65  39  38 W24G40    29.73R                  

Minot          MOSUNNY   68  42  38 W20G33    29.68R                  

Dickinson      SUNNY     69  28  21 W22G41    29.76R                  

Beach          FAIR      66  25  20 NW21G32   29.82R                  

Bowman         FAIR      70  21  16 NW16G26   29.82R                  

Crosby         PTSUNNY   63  39  42 W22G30    29.64S                  

Glen Ullin     FAIR      70  30  23 W17       29.75R                  

Hettinger      MOSUNNY   73  27  18 W16G24    29.81R                  

Tioga          FAIR      61  41  48 W30G38    29.72R                  

Watford City   FAIR      64  43  45 W21G35    29.77R                  

Bismarck       MOSUNNY   75  30  19 W17G24    29.74S                  

Grand Forks    PTSUNNY   71  42  35 W15G26    29.65R                  

Fargo          MOSUNNY   78  40  25 W16       29.69R                  

Buffalo SD       N/A     72  28  19 NW13      29.78F                  

Rapid City     PTSUNNY   71  44  37 E6        29.82S                  

Intl Falls     PTSUNNY   75  66  73 W7        29.57R                  

Duluth         PTSUNNY   76  68  76 W7        29.65R                  

Minneapolis    PTSUNNY   87  70  56 W9        29.64R HX  92           

--------------------------------



Regional Reports...WY/CO/ID/WA/OR

  

CITY           SKY/WX    TMP DP  RH WIND       PRES   REMARKS

Buffalo WY     PTSUNNY   63  42  46 N7        29.84S                  

Cody           SUNNY     68  32  26 N9        29.79F                  

Gillette       CLOUDY    67  39  35 NE16G22   29.82S                  

Powell         FAIR      68  19  15 W8        29.78F                  

Sheridan       SUNNY     71  37  28 VRB3      29.81F                  

Yellowstone La   N/A     55  24  30 VRB5      29.96F                  

Boise          MOSUNNY   72  23  16 NW13G20   29.76F                  

Couer d'Alene  PTSUNNY   58  32  37 S8        29.91F                  

Idaho Falls    PTSUNNY   69  22  16 SW14G24   29.83F                  

Salmon         CLOUDY    63  26  24 N7        29.74                   

Spokane        PTSUNNY   61  27  27 VRB3      29.90F                  

Seattle        PTSUNNY   62  36  37 NW10      29.99S                  

Portland       PTSUNNY   65  39  38 NW16G23   29.99S                  

--------------------------------



Other Reports

  

CITY           SKY/WX    TMP DP  RH WIND       PRES   REMARKS

Atlanta        MOCLDY    91  64  40 SE14G20   30.06R HX  92           

Anchorage      MOSUNNY   64  51  62 NW7       30.07F                  

Boston         MOCLDY    64  50  60 SE9       30.23R                  

Chicago        LGT RAIN  79  64  60 W10G23    29.84F                  

Fairbanks      MOSUNNY   79  41  25 SW6       29.99F                  

Houston        MOSUNNY   89  7256 SE16      29.82S HX  96           

Las Vegas NV   MOSUNNY  104  24   6 S13G21    29.55F HX  96           

Phoenix AZ     MOSUNNY  111  21   4 W16G24    29.53F HX 102           

Salt Lake City MOSUNNY   79  34  19 N10       29.76F                  

San Diego      PTSUNNY   65  56  72 S10G22    29.77F                  

San Francisco  MOSUNNY   66  39  37 NW24G35   29.86F                  

Washington Dul CLOUDY    81  60  48 S10G16    30.13S                  

--------------------------------



Regional Reports...Alberta

  

CITY           SKY/WX    TMP DP  RH WIND       PRES   REMARKS

Calgary        CLOUDY    46  39  76 NE16G24   29.86R                  

Cardston         N/A     50  36  57 NW5         N/A                   

Crowsnest Pass   N/A     48  30  49 W12G20      N/A                   

Del Bonita       N/A     46  36  66 NW16        N/A                   

Fort McMurray  MOSUNNY   54  28  37 N15G24    29.71R                  

High Level     PTSUNNY   55  27  33 N14G23    29.85F                  

Lethbridge     LGT RAIN  46  41  81 SW9       29.89F                  

Medicine Hat   CLOUDY    52  45  76 SW18G25   29.83R                  

Milk River       N/A     50  37  62 NW18G24     N/A                   

Onefour          N/A     54  43  66 W21         N/A                   

Pincher Creek  MOSUNNY   48  36  61 W16G22    29.89F                  

Raymond          N/A     46  43  87 NW12        N/A                   

Waterton Gate    N/A     46  34  61 SW10        N/A                   

Fort Smith NWT LGT RAIN  43  34  70 N15G30    29.75R                  

--------------------------------



Regional Reports...Saskatchewan

  

CITY           SKY/WX    TMP DP  RH WIND       PRES   REMARKS

Assiniboia       N/A     54  45  71 NW21G26     N/A                   

Coronach         N/A     59  43  55 VRB33       N/A                   

Cypress Hills    N/A     48  39  71 W10G18      N/A                   

Estevan        PTSUNNY   64  43  45 W23G36    29.63R                  

Moose Jaw        N/A     54  45  71 NW20G31     N/A                   

Prince Albert  PTSUNNY   55  37  50 NW25G39   29.52R                  

Regina         CLOUDY    54  46  76 NW17G24   29.65R                  

Rockglen         N/A     54  43  66 NW16G25     N/A                   

Saskatoon      PTSUNNY   61  39  44 W25       29.59R                  

Swift Current  PTSUNNY   55